Accueil
METAR-TAF:

METAR-TAF

Aéroports :

Aéroport de Vannes

Vannes, France

latitude: 47-43-19N, longitude: 2-43-41W, altitude: 130 m

Observation

Le bulletin a été fait il y a 44 minutes, à 03:00 UTC
Vent 8 kt de ouest/sud-ouest, variant entre sud-ouest et ouest/nord-ouest
Température 15°C
Humidité 94%
Pression 1006 hPa
Visibilité 10 km ou plus
Nuages fragmentés à une hauteur de 1300 ft
Ciel couvert à une hauteur de 1900 ft

METAR: LFRV 060300Z AUTO 25008KT 220V300 9999 BKN013 OVC019 15/14 Q1006

Heure: 05:44 (03:44 UTC)


TAF: absent

Observations et prévisions météorologiques de plus de 4000 aéroports (messages METAR et TAF).

Les stations disponibles sont représentées par des disques jaunes et rouges sur la carte.

Passer la souris dessus pour voir le nom de la station.

Cliquer dessus pour voir les observations et prévisions météorologiques.

Pour changer de carte: cliquez sur les boutons verts avec une croix noire pour zoomer, sur le bouton vert avec un tiret pour effectuer un zoom arrière, ou sur les flèches vertes pour les cartes adjacentes.


METAR-TAF: